Location: ???? ?????????
(31.1304°N, 31.7111°E)
Time: 16:20:03
(UTC+00:00)

Hubble Space Telescope - Visible Passes

Search period start: 22 January 2021 00:00
Search period end: 01 February 2021 00:00
Orbit: 536 x 539 km, 28.5° (Epoch: 22 January)

Date Brightness Start Highest point End Pass type
(mag) Time Alt. Az. Time Alt. Az. Time Alt. Az.
22 Jan 1.1 16:05:42 10° WSW 16:09:46 60° S 16:13:11 14° E visible
22 Jan 3.1 17:46:49 10° W 17:48:30 22° WSW 17:48:30 22° WSW visible
23 Jan 1.2 15:54:51 10° W 15:58:56 60° S 16:03:00 10° E visible
23 Jan 2.6 17:36:03 10° W 17:38:27 29° WSW 17:38:27 29° WSW visible
24 Jan 1.2 15:44:01 10° W 15:48:05 59° S 15:52:10 10° ESE visible
24 Jan 2.2 17:25:17 10° W 17:28:27 32° SW 17:28:27 32° SW visible
25 Jan 2.2 17:14:33 10° WSW 17:18:10 29° SSW 17:18:32 28° S visible
26 Jan 2.6 17:03:54 10° WSW 17:07:16 24° SSW 17:08:43 20° SSE visible
27 Jan 3.0 16:53:18 10° WSW 16:56:22 20° SSW 16:59:01 12° SSE visible
28 Jan 3.3 16:42:50 10° WSW 16:45:26 16° SSW 16:48:03 10° SSE visible
29 Jan 3.5 16:32:36 10° SW 16:34:31 13° SSW 16:36:26 10° S visible
